Regional Weather Roundup
Issued by NWS

Home | Current Version | Previous Version | Text Only | Print | Product List | Glossary Off
Versions: 1 2 3 4 5 6 7 8 9 10 11 12 13 14 15 16 17 18 19 20 21 22 23 24 25 26 27 28 29 30 31 32 33 34 35 36 37 38 39 40 41 42 43 44 45 46 47 48 49 50

000
ASUS43 KFSD 270402
RWRSD

WEATHER ROUNDUP FOR SOUTH DAKOTA
NATIONAL WEATHER SERVICE SIOUX FALLS SD
1100 PM CDT TUE MAY 26 2015

NOTE: "FAIR" INDICATES FEW OR NO CLOUDS BELOW 12,000 FEET WITH NO
SIGNIFICANT WEATHER AND/OR OBSTRUCTIONS TO VISIBILITY.


SDZ001>005-009-010-012>017-270500-
NORTHWEST AND NORTH CENTRAL SOUTH DAKOTA

CITY           SKY/WX    TMP DP  RH WIND       PRES   REMARKS
FAITH            N/A     59  47  64 SW6       29.97R
MOBRIDGE       MOCLDY    63  54  72 SE5       29.90R
$$

SDZ012>016-024>037-041>051-057-063-072>074-270500-
SOUTHWEST AND SOUTH CENTRAL SOUTH DAKOTA

CITY           SKY/WX    TMP DP  RH WIND       PRES   REMARKS
RAPID CTY ARPT MOCLDY    56  49  77 W6        29.99R
PIERRE         PTCLDY    62  48  60 SW3       29.93R
CUSTER         CLOUDY    47  45  93 CALM      30.08R FOG
ELLSWORTH AFB  MOCLDY    57  50  78 S6        29.99R
PHILIP         CLEAR     57  49  74 CALM      29.97R
PINE RIDGE     CLOUDY    55  47  74 CALM      30.01R
WINNER         CLOUDY    65  50  58 S5        29.97R
$$

SDZ004>011-016>023-039-040-270500-
NORTHEAST SOUTH DAKOTA

CITY           SKY/WX    TMP DP  RH WIND       PRES   REMARKS
ABERDEEN       MOCLDY    58  53  84 SE3       29.88R
WATERTOWN      CLOUDY    64  50  60 W15       29.84F
BROOKINGS      MOCLDY    59  54  82 W3        29.90R
$$

SDZ017-020-022-023-036>040-048>070-270500-
SOUTHEAST SOUTH DAKOTA

CITY           SKY/WX    TMP DP  RH WIND       PRES   REMARKS
SIOUX FALLS    CLOUDY    57  53  86 CALM      29.89R
HURON          CLOUDY    61  49  64 CALM      29.89R
MITCHELL       MOCLDY    62  53  72 NW9       29.90R
YANKTON        MOCLDY    61  52  72 CALM      29.90R
$$

ABBREVIATIONS USED IN REMARKS
   TC - TEMPERATURE IN CELSIUS
  WCI - WIND CHILL INDEX
   HX - HEAT INDEX
  VSB - VISIBILITY



USA.gov is the U.S. government's official web portal to all federal, state and local government web resources and services.